Regional Weather Roundup
Issued by NWS

Home | Current Version | Previous Version | Graphics & Text | Print | Product List | Glossary On
Versions: 1 2 3 4 5 6 7 8 9 10 11 12 13 14 15 16 17 18 19 20 21 22 23 24 25 26 27 28 29 30 31 32 33 34 35 36 37 38 39 40 41 42 43 44 45 46 47 48 49 50
000
ASUS43 KMPX 241110
RWRMN
WEATHER ROUNDUP FOR MINNESOTA
NATIONAL WEATHER SERVICE TWIN CITIES/CHANHASSEN MN
600 AM CDT THU APR 24 2014


NOTE: "FAIR" INDICATES FEW OR NO CLOUDS BELOW 12,000 FEET WITH NO
SIGNIFICANT WEATHER AND/OR OBSTRUCTIONS TO VISIBILITY. N/A MEANS
CURRENT SKY AND/OR WEATHER CONDITIONS ARE NOT AVAILABLE.

MNZ060>063-068>070-241200-
   Twin Cities Metro

CITY           SKY/WX    TMP DP  RH WIND       PRES   REMARKS
TWIN CITIES    LGT RAIN  41  40  96 E17       29.81F FOG
ST PAUL        LGT RAIN  42  39  89 SE14G24   29.83F
CRYSTAL        CLOUDY    43  39  86 SE13G21   29.80F FOG
BLAINE         LGT RAIN  43  43 100 E12       29.82F
EDEN PRAIRIE   LGT RAIN  42  40  92 E15G23    29.79F
LAKEVILLE      RAIN      39  37  93 E16       29.79F
SOUTH ST PAUL  LGT RAIN  43  42  95 SE8       29.82F
LAKE ELMO      DRIZZLE   41  39  93 E14G21    29.84F
$$
MNZ001>005-007-008-013>017-022>024-027-028-241200-
   Northwest Minnesota

CITY           SKY/WX    TMP DP  RH WIND       PRES   REMARKS
BEMIDJI        LGT SNOW  34  34  98 E9        29.82F WCI  27
HALLOCK        CLOUDY    39  36  87 SE15      29.79S
ROSEAU         CLOUDY    37  34  87 SE10      29.84F
WARROAD        CLOUDY    37  34  87 SE9       29.86F
THIEF RVR FALL CLOUDY    37  34  87 E12       29.81F
CROOKSTON      CLOUDY    37  37 100 SE13      29.79F
FOSSTON        CLOUDY    36  36 100 SE9G16    29.80F
DETROIT LAKES  CLOUDY    39  37  93 SE12      29.78F
MOORHEAD       CLOUDY    43  43 100 SE7       29.77S
PARK RAPIDS    CLOUDY    38  37  97 E9        29.80F FOG
$$
MNZ006-009>011-018-025>026-241200-
   North Central Minnesota

CITY           SKY/WX    TMP DP  RH WIND       PRES   REMARKS
BAUDETTE       CLOUDY    37  35  92 E10       29.87F
FLAG ISLAND    CLOUDY    36  36 100 E12       29.87F
INTL FALLS     CLOUDY    37  35  92 E10       29.91F
WASKISH        CLOUDY    36  36 100 E10       29.85F
LONGVILLE      CLOUDY    37  36  93 E7        29.84F
GRAND RAPIDS   CLOUDY    36  34  93 SE10G16   29.88S
CRANE LAKE     CLOUDY    36  36 100 CALM      29.96F
ORR            CLOUDY    36  34  93 E6        29.89F
COOK           CLOUDY    36  36 100 E7        29.92F
$$
MNZ012-019>021-037-241200-
   Northeast Minnesota

CITY           SKY/WX    TMP DP  RH WIND       PRES   REMARKS
DULUTH         DRIZZLE   36  34  92 E18       29.93F FOG
ELY            CLOUDY    36  36 100 SE6       29.96F
HIBBING        CLOUDY    36  33  89 SE12      29.91F
EVELETH        CLOUDY    36  36 100 SE9       29.92F
DULUTH HARBOR  CLOUDY    34  32  93 NE13      29.97F WCI  25
TWO HARBORS    DRIZZLE   37  32  81 E12       29.96F
SILVER BAY     DRIZZLE   36  36 100 E7        29.99S
GRAND MARAIS     N/A     36  30  79 VRB3      30.05F
G MARAIS ARPRT DRIZZLE   36  28  75 S6        30.01F
$$
MNZ029>031-032-039>041-046>048-054>057-064-241200-
   West Central Minnesota

CITY           SKY/WX    TMP DP  RH WIND       PRES   REMARKS
FERGUS FALLS   CLOUDY    41  36  81 SE10      29.74S
WHEATON        CLOUDY    43  39  87 SE6       29.77F
MORRIS         CLOUDY    43  37  81 E8        29.74F
ALEXANDRIA     CLOUDY    40  37  89 E10       29.77F
ELBOW LAKE     CLOUDY    41  37  86 SE9       29.76S
WADENA         CLOUDY    39  36  87 E10       29.78F
GLENWOOD       CLOUDY    41  37  87 E10       29.76F
APPLETON       CLOUDY    45  39  81 E9        29.73F
BENSON         CLOUDY    43  39  87 SE9       29.75S
ORTONVILLE     CLOUDY    41  37  87 E3        29.73F
MADISON        CLOUDY    45  43  93 E6        29.72F
WILLMAR        MIX PCPN  43  39  87 E16       29.74F
$$
MNZ033>034-036-042>043-049>051-058-059-241200-
   Central Minnesota

CITY           SKY/WX    TMP DP  RH WIND       PRES   REMARKS
ST CLOUD       CLOUDY    43  38  82 E8        29.79F
SAUK CENTRE    CLOUDY    40  37  87 E8        29.77F
PAYNESVILLE    CLOUDY    42  38  85 E12G17    29.77S
AITKIN         CLOUDY    41  36  81 E8        29.84S
PINE RIVER     CLOUDY    37  37 100 E7        29.87S
BRAINERD       CLOUDY    43  36  76 SE12      29.83S
STAPLES        CLOUDY    39  36  87 E5        29.81R
LONG PRAIRIE   CLOUDY    37  37 100 E7        29.79S
LITTLE FALLS   CLOUDY    39  36  87 E9        29.80S
LITCHFIELD     DRIZZLE   43  43 100 SE13      29.77S
BUFFALO        DRIZZLE   41  38  89 E9        29.81S
MAPLE LAKE     CLOUDY    43  40  91 SE12G17   29.80S
$$
MNZ037-044-045-052-053-241200-
   East Central Minnesota

CITY           SKY/WX    TMP DP  RH WIND       PRES   REMARKS
PRINCETON      CLOUDY    43  39  87 E9        29.82F
MORA           CLOUDY    37  36  93 E12       29.86F
CAMBRIDGE      CLOUDY    43  36  75 E10       29.82F
RUSH CITY      CLOUDY    41  37  87 E9G17     29.86F
MOOSE LAKE     CLOUDY    37  36  93 E9        29.88F FOG
HINCKLEY       CLOUDY    39  37  93 E14       29.87F
CLOQUET        DRIZZLE   36  36 100 E9        29.91F
MCGREGOR       CLOUDY    37  36  93 E9        29.88F
$$
MNZ071>073-080-081-089-090-097-098-241200-
   Southwest Minnesota

CITY           SKY/WX    TMP DP  RH WIND       PRES   REMARKS
MONTEVIDEO     DRIZZLE   43  43 100 S6        29.73S
GRANITE FALLS  DRIZZLE   42  39  91 E10G16    29.73S
CANBY          CLOUDY    41  40  97 E3        29.72F FOG
MARSHALL       CLOUDY    43  37  81 SE10      29.69S
REDWOOD FALLS  RAIN      43  41  93 SE13G22   29.71F FOG
OLIVIA         LGT RAIN  43  37  81 SE14G21   29.72F
PIPESTONE      LGT RAIN  43  43 100 CALM      29.66S
WINDOM         RAIN      43  43 100 E8        29.70F
WORTHINGTON    CLOUDY    45  37  76 SE14      29.68F
JACKSON        RAIN      43  39  87 SE12      29.71F
TRACY          RAIN      43  42  97 SE8       29.69S
SLAYTON        CLOUDY    42  42  99 SE15      29.67F FOG
$$
MNZ065>067-074>077-082>085-091>093-241200-
   South Central Minnesota

CITY           SKY/WX    TMP DP  RH WIND       PRES   REMARKS
MANKATO        CLOUDY    43  39  87 SE14G22   29.76S
NEW ULM        RAIN      43  43 100 E7        29.75F
ST JAMES       LGT RAIN  45  41  87 CALM      29.75S
FAIRMONT       CLOUDY    45  37  76 SE16      29.72S
GLENCOE        RAIN      42  39  89 E9        29.78R
FARIBAULT      RAIN      45  37  76 E13G21    29.78F
OWATONNA       CLOUDY    43  39  87 SE21G26   29.76F
WASECA         LGT RAIN  41  36  81 SE20G25   29.76F
ALBERT LEA     LGT RAIN  41  41 100 SE17G26   29.76S
$$
MNZ078>079-086>088-094>096-241200-
   Southeast Minnesota

CITY           SKY/WX    TMP DP  RH WIND       PRES   REMARKS
ROCHESTER      RAIN      40  36  86 SE21G28   29.80F FOG
RED WING       HVY RAIN  41  37  87 SE17G23   29.82F
STANTON        RAIN      41  38  86 E12G20    29.79F
DODGE CENTER   RAIN      43  41  93 SE20      29.79F
WINONA         RAIN      37  36  93 SE12      29.88F
AUSTIN         MIX PCPN  41  39  93 SE21G26   29.78S
PRESTON        RAIN      39  37  91 SE13G18   29.82F
$$
ABBREVIATIONS USED IN REMARKS
   TC - TEMPERATURES IN CELSIUS
  WCI - WIND CHILL INDEX
   HX - HEAT INDEX
  VSB - VISIBILITY
$$


USA.gov is the U.S. government's official web portal to all federal, state and local government web resources and services.